Track COSMOS 2426 (GLONASS) now! COSMOS 2426 (GLONASS) is classified as:
1 29671U 06062B 26164.83287328 .00000110 00000-0 00000-0 0 9991 2 29671 64.6998 194.6529 0021737 184.5222 174.5828 2.12963857151475